Weather History for Sanford, NC

Change the Weather History Date:

Tuesday, June 25, 2013

  Actual Average (KRDU) Record (KRDU)
Temperature  
Mean Temperature 77 °F 79 °F  
Max Temperature 88 °F 89 °F 100 °F (1952)
Min Temperature 66 °F 68 °F 54 °F (1936)
Degree Days  
Heating Degree Days 0 0  
Month to date heating degree days 0  
Since 1 June heating degree days 0  
Since 1 July heating degree days 3243  
Cooling Degree Days 12 14  
Month to date cooling degree days 277  
Year to date cooling degree days 486  
Since 1 June cooling degree days 277  
Growing Degree Days 27 (Base 50)    
Moisture  
Dew Point 69 °F    
Average Humidity 83    
Maximum Humidity 98    
Minimum Humidity 52    
Precipitation  
Precipitation 0.00 in 0.12 in 3.35 in (1980)
Month to date precipitation 2.93  
Year to date precipitation 19.96  
Sea Level Pressure  
Sea Level Pressure 30.09 in    
Wind  
Wind Speed 2 mph (SW)    
Max Wind Speed 13 mph    
Max Gust Speed 18 mph    
Visibility 9 miles    
Events Rain    
T = Trace of Precipitation, MM = Missing Value Source: NWS Daily Summary

Daily Weather History Graph

Daily Weather History Graph

Search for Another Location

Airport:

Trip Planner

Search our weather history database for the weather conditions in past years. The results will help you decide how hot, cold, wet, or windy it might be!

Date:

Astronomy

Jun. 25, 2013 Rise Set
Actual Time 6:02 AM EDT 8:35 PM EDT
Civil Twilight 5:32 AM EDT 9:05 PM EDT
Nautical Twilight 4:55 AM EDT 9:43 PM EDT
Astronomical Twilight 4:13 AM EDT 10:24 PM EDT
Moon 10:27 PM EDT (6/25) 8:34 AM EDT (6/25)
Length of Visible Light 15h 33m
Length of Day
14h 33m
Waning Gibbous, 93% of the Moon is Illuminated
Jun 25
Waning Gibbous
Jun 30
Last Quarter
Jul 8
New
Jul 15
First Quarter
Jul 22
Full

Hourly Weather History & Observations

Time (EDT) Temp. Heat Index Dew Point Humidity Pressure Visibility Wind Dir Wind Speed Gust Speed Precip Events Conditions
12:15 AM 70.3 °F - 68.0 °F 92% 30.15 in 10.0 mi Calm Calm - N/A   Clear
12:35 AM 69.8 °F - 68.0 °F 94% 30.14 in 10.0 mi Calm Calm - N/A   Clear
12:55 AM 68.9 °F - 67.5 °F 95% 30.14 in 10.0 mi Calm Calm - N/A   Clear
1:15 AM 69.8 °F - 68.5 °F 96% 30.14 in 10.0 mi Calm Calm - N/A   Clear
1:35 AM 68.4 °F - 67.1 °F 96% 30.13 in 7.0 mi Calm Calm - N/A   Clear
1:55 AM 68.2 °F - 66.9 °F 96% 30.14 in 10.0 mi Calm Calm - N/A   Clear
2:15 AM 68.0 °F - 66.7 °F 96% 30.14 in 7.0 mi Calm Calm - N/A   Scattered Clouds
2:35 AM 67.6 °F - 66.4 °F 96% 30.14 in 10.0 mi Calm Calm - N/A   Scattered Clouds
2:55 AM 68.0 °F - 66.7 °F 96% 30.14 in 10.0 mi Calm Calm - N/A   Scattered Clouds
3:15 AM 68.0 °F - 66.7 °F 96% 30.14 in 10.0 mi Calm Calm - N/A   Clear
3:35 AM 67.3 °F - 66.2 °F 96% 30.13 in 7.0 mi Calm Calm - N/A   Clear
3:55 AM 67.8 °F - 66.6 °F 96% 30.13 in 10.0 mi Calm Calm - N/A   Scattered Clouds
4:15 AM 67.5 °F - 66.4 °F 96% 30.13 in 7.0 mi Calm Calm - N/A   Scattered Clouds
4:35 AM 67.1 °F - 65.8 °F 96% 30.13 in 10.0 mi Calm Calm - N/A   Clear
4:55 AM 66.9 °F - 65.8 °F 96% 30.13 in 7.0 mi Calm Calm - N/A   Clear
5:15 AM 66.9 °F - 65.8 °F 96% 30.13 in 4.0 mi Calm Calm - N/A   Clear
5:35 AM 66.4 °F - 65.5 °F 97% 30.13 in 4.0 mi Calm Calm - N/A   Clear
5:55 AM 66.4 °F - 65.5 °F 97% 30.12 in 5.0 mi Calm Calm - N/A   Clear
6:15 AM 66.4 °F - 65.5 °F 97% 30.13 in 4.0 mi Calm Calm - N/A   Clear
6:35 AM 66.7 °F - 66.0 °F 98% 30.12 in 5.0 mi Calm Calm - N/A   Clear
6:55 AM 67.6 °F - 66.7 °F 97% 30.12 in 7.0 mi Calm Calm - N/A   Clear
7:15 AM 69.1 °F - 68.2 °F 97% 30.12 in 5.0 mi Calm Calm - N/A   Clear
7:35 AM 71.4 °F - 70.3 °F 96% 30.12 in 10.0 mi Calm Calm - N/A   Clear
7:55 AM 73.6 °F - 70.7 °F 91% 30.12 in 10.0 mi SW 4.6 mph - N/A   Clear
8:15 AM 75.2 °F - 70.9 °F 86% 30.12 in 10.0 mi WSW 5.8 mph - N/A   Scattered Clouds
8:35 AM 76.3 °F - 71.1 °F 84% 30.12 in 10.0 mi SW 5.8 mph - N/A   Scattered Clouds
8:55 AM 77.0 °F - 70.7 °F 81% 30.12 in 10.0 mi WSW 9.2 mph - N/A   Clear
9:15 AM 78.1 °F - 70.5 °F 77% 30.13 in 10.0 mi WSW 10.4 mph 16.1 mph N/A   Clear
9:35 AM 78.8 °F - 71.1 °F 77% 30.12 in 10.0 mi WSW 6.9 mph - N/A   Clear
9:55 AM 80.6 °F 84.4 °F 71.4 °F 73% 30.12 in 10.0 mi SW 6.9 mph - N/A   Scattered Clouds
10:15 AM 81.7 °F 86.3 °F 71.8 °F 72% 30.12 in 10.0 mi WSW 8.1 mph - N/A   Clear
10:35 AM 81.9 °F 86.6 °F 72.0 °F 72% 30.12 in 10.0 mi SW 8.1 mph - N/A   Scattered Clouds
10:55 AM 82.8 °F 87.7 °F 71.8 °F 69% 30.12 in 10.0 mi WSW 6.9 mph - N/A   Scattered Clouds
11:15 AM 83.3 °F 88.7 °F 72.3 °F 69% 30.12 in 10.0 mi WSW 6.9 mph - N/A   Mostly Cloudy
11:35 AM 83.8 °F 89.5 °F 72.1 °F 68% 30.12 in 10.0 mi WSW 6.9 mph - N/A   Mostly Cloudy
11:55 AM 84.7 °F 90.4 °F 71.8 °F 65% 30.12 in 10.0 mi WSW 8.1 mph - N/A   Mostly Cloudy
12:15 PM 85.5 °F 90.8 °F 70.9 °F 62% 30.12 in 10.0 mi WSW 12.7 mph 16.1 mph N/A   Mostly Cloudy
12:35 PM 86.2 °F 92.2 °F 71.8 °F 62% 30.11 in 10.0 mi SSW 9.2 mph - N/A   Scattered Clouds
12:55 PM 87.3 °F 92.8 °F 70.7 °F 58% 30.11 in 10.0 mi SW 8.1 mph 17.3 mph N/A   Scattered Clouds
1:15 PM 87.8 °F 93.8 °F 71.6 °F 58% 30.10 in 10.0 mi SW 10.4 mph 17.3 mph N/A   Scattered Clouds
1:35 PM 87.1 °F 92.4 °F 70.9 °F 58% 30.09 in 10.0 mi West 9.2 mph - N/A   Scattered Clouds
1:55 PM 87.3 °F 92.4 °F 70.3 °F 57% 30.08 in 10.0 mi West 10.4 mph - N/A   Scattered Clouds
2:15 PM 87.8 °F 93.4 °F 70.9 °F 57% 30.07 in 10.0 mi West 8.1 mph - N/A   Mostly Cloudy
2:35 PM 87.8 °F 93.0 °F 70.5 °F 56% 30.07 in 10.0 mi West 8.1 mph - N/A   Scattered Clouds
2:55 PM 88.9 °F 93.4 °F 69.3 °F 52% 30.06 in 10.0 mi West 6.9 mph - N/A   Scattered Clouds
3:15 PM 88.0 °F 92.5 °F 69.4 °F 54% 30.05 in 10.0 mi West 3.5 mph - N/A   Scattered Clouds
3:35 PM 84.7 °F 90.7 °F 72.3 °F 66% 30.06 in 10.0 mi SSW 6.9 mph - N/A   Scattered Clouds
3:55 PM 79.3 °F - 69.4 °F 72% 30.08 in 10.0 mi South 9.2 mph - N/A Rain Light Rain
4:15 PM 75.0 °F - 68.0 °F 79% 30.08 in 10.0 mi South 9.2 mph 18.4 mph N/A Rain Light Rain
4:35 PM 74.7 °F - 66.6 °F 76% 30.06 in 10.0 mi South 9.2 mph 16.1 mph N/A   Clear
4:55 PM 74.3 °F - 67.6 °F 80% 30.06 in 10.0 mi SW 5.8 mph - N/A   Clear
5:15 PM 74.7 °F - 68.5 °F 81% 30.06 in 10.0 mi SW 5.8 mph - N/A   Clear
5:35 PM 74.3 °F - 68.9 °F 83% 30.05 in 10.0 mi SW 5.8 mph - N/A   Clear
5:55 PM 75.0 °F - 69.1 °F 82% 30.05 in 10.0 mi Calm Calm - N/A   Clear
6:15 PM 75.7 °F - 69.3 °F 80% 30.04 in 10.0 mi SSE 3.5 mph - N/A   Clear
6:35 PM 75.7 °F - 70.2 °F 83% 30.02 in 10.0 mi Calm Calm - N/A Rain Light Rain
6:55 PM 76.8 °F - 70.2 °F 80% 30.03 in 10.0 mi Calm Calm - N/A   Clear
7:15 PM 76.5 °F - 70.7 °F 82% 30.04 in 10.0 mi SSE 3.5 mph - N/A   Clear
7:35 PM 75.7 °F - 71.2 °F 86% 30.04 in 10.0 mi Calm Calm - N/A   Clear
7:55 PM 75.7 °F - 71.4 °F 86% 30.04 in 10.0 mi Calm Calm - N/A   Clear
8:15 PM 75.0 °F - 71.6 °F 89% 30.04 in 10.0 mi SSW 3.5 mph - N/A   Clear
8:35 PM 74.3 °F - 71.6 °F 91% 30.04 in 10.0 mi Calm Calm - N/A   Clear
8:55 PM 73.9 °F - 71.6 °F 92% 30.04 in 10.0 mi Calm Calm - N/A   Clear
9:15 PM 73.6 °F - 71.6 °F 93% 30.03 in 10.0 mi SSE 3.5 mph - N/A   Clear
9:35 PM 74.1 °F - 71.6 °F 92% 30.03 in 10.0 mi South 3.5 mph - N/A   Clear
9:55 PM 73.9 °F - 70.7 °F 90% 30.04 in 10.0 mi Calm Calm - N/A   Clear
10:15 PM 73.2 °F - 70.2 °F 90% 30.04 in 10.0 mi Calm Calm - N/A   Clear
10:35 PM 72.5 °F - 70.7 °F 94% 30.05 in 10.0 mi Calm Calm - N/A   Clear
10:55 PM 72.5 °F - 69.8 °F 91% 30.05 in 10.0 mi Calm Calm - N/A   Clear
11:15 PM 71.8 °F - 69.3 °F 92% 30.06 in 10.0 mi Calm Calm - N/A   Clear
11:35 PM 71.8 °F - 68.9 °F 91% 30.06 in 10.0 mi Calm Calm - N/A   Clear
11:55 PM 70.0 °F - 68.2 °F 94% 30.06 in 7.0 mi Calm Calm - N/A   Clear